When you browse on this site, cookies collect data to enhance your experience and personalize the content and advertising you see.
Visit our Privacy Policy to learn more. By continuing to use the site, you agree to this use of cookies and data.
  • en France
  • Liste des pays
  • À 7 jours
  • Température de l'eau
  • Carte satellitaire
  • Carte météo
  • Widgets météo
  • user-avatar
    Se connecter

    Météo par heure à Dangriga

    Ce jour, 23 Juillet, Mardi

    Heure Température Précipitation Vent Pression Humidité
    00:00 +26°C° 0 mm 4 m/s 760 mmHg 99%
    01:00 +26°C° 0 mm 3 m/s 760 mmHg 99%
    02:00 +26°C° 0 mm 3 m/s 759 mmHg 99%
    03:00 +26°C° 0 mm 3 m/s 759 mmHg 99%
    04:00 +26°C° 0 mm 3 m/s 759 mmHg 98%
    05:00 +26°C° 0 mm 3 m/s 759 mmHg 98%
    06:00 +26°C° 0 mm 2 m/s 759 mmHg 98%
    07:00 +28°C° 0 mm 3 m/s 759 mmHg 89%
    08:00 +30°C° 0 mm 3 m/s 760 mmHg 80%
    09:00 +33°C° 0 mm 3 m/s 760 mmHg 71%
    10:00 +34°C° 0 mm 3 m/s 760 mmHg 65%
    11:00 +35°C° 0 mm 3 m/s 760 mmHg 60%
    12:00 +36°C° 0 mm 4 m/s 760 mmHg 54%
    13:00 +35°C° 0 mm 4 m/s 759 mmHg 55%
    14:00 +35°C° 0 mm 4 m/s 759 mmHg 57%
    15:00 +35°C° 0 mm 4 m/s 758 mmHg 58%
    16:00 +33°C° 0 mm 4 m/s 758 mmHg 67%
    17:00 +31°C° 0 mm 3 m/s 759 mmHg 76%
    18:00 +29°C° 0 mm 3 m/s 759 mmHg 84%
    19:00 +28°C° 0 mm 3 m/s 759 mmHg 89%
    20:00 +27°C° 0 mm 3 m/s 760 mmHg 94%
    21:00 +26°C° 0 mm 3 m/s 760 mmHg 99%
    22:00 +26°C° 0 mm 3 m/s 760 mmHg 99%
    23:00 +26°C° 0 mm 3 m/s 760 mmHg 99%

    Demain, 24 Juillet, Mercredi

    Heure Température Précipitation Vent Pression Humidité
    00:00 +26°C° 0 mm 4 m/s 760 mmHg 99%
    01:00 +26°C° 0.1 mm 3 m/s 760 mmHg 99%
    02:00 +26°C° 0.1 mm 3 m/s 759 mmHg 99%
    03:00 +26°C° 0.1 mm 3 m/s 759 mmHg 98%
    04:00 +26°C° 0.1 mm 3 m/s 759 mmHg 98%
    05:00 +26°C° 0.1 mm 3 m/s 759 mmHg 98%
    06:00 +26°C° 0.1 mm 2 m/s 760 mmHg 98%
    07:00 +27°C° 0 mm 3 m/s 760 mmHg 93%
    08:00 +29°C° 0 mm 3 m/s 760 mmHg 87%
    09:00 +30°C° 0 mm 3 m/s 760 mmHg 82%
    10:00 +33°C° 0 mm 3 m/s 760 mmHg 72%
    11:00 +34°C° 0 mm 3 m/s 760 mmHg 63%
    12:00 +35°C° 0 mm 3 m/s 760 mmHg 53%
    13:00 +35°C° 0 mm 3 m/s 759 mmHg 54%
    14:00 +35°C° 0 mm 3 m/s 758 mmHg 55%
    15:00 +35°C° 0 mm 4 m/s 758 mmHg 57%
    16:00 +33°C° 0 mm 4 m/s 758 mmHg 66%
    17:00 +30°C° 0 mm 4 m/s 758 mmHg 75%
    18:00 +29°C° 0 mm 4 m/s 759 mmHg 84%
    19:00 +28°C° 0 mm 4 m/s 759 mmHg 88%
    20:00 +27°C° 0 mm 4 m/s 759 mmHg 93%
    21:00 +26°C° 0 mm 4 m/s 760 mmHg 98%
    22:00 +26°C° 0.4 mm 4 m/s 760 mmHg 98%
    23:00 +26°C° 0.4 mm 4 m/s 760 mmHg 98%

    Après-demain, 25 Juillet, Jeudi

    Heure Température Précipitation Vent Pression Humidité
    00:00 +26°C° 0.4 mm 4 m/s 759 mmHg 99%
    01:00 +26°C° 2.6 mm 4 m/s 759 mmHg 98%
    02:00 +26°C° 2.6 mm 4 m/s 759 mmHg 98%
    03:00 +26°C° 2.6 mm 4 m/s 758 mmHg 98%
    04:00 +26°C° 2.4 mm 4 m/s 759 mmHg 98%
    05:00 +26°C° 2.4 mm 5 m/s 759 mmHg 97%
    06:00 +26°C° 2.4 mm 5 m/s 759 mmHg 97%
    07:00 +27°C° 1 mm 6 m/s 759 mmHg 95%
    08:00 +28°C° 1 mm 6 m/s 760 mmHg 93%
    09:00 +29°C° 1 mm 6 m/s 760 mmHg 91%
    10:00 +30°C° 0.2 mm 6 m/s 760 mmHg 85%
    11:00 +32°C° 0.2 mm 5 m/s 760 mmHg 79%
    12:00 +33°C° 0.2 mm 5 m/s 760 mmHg 73%
    13:00 +33°C° 0 mm 5 m/s 759 mmHg 69%
    14:00 +33°C° 0 mm 5 m/s 759 mmHg 66%
    15:00 +34°C° 0 mm 5 m/s 758 mmHg 62%
    16:00 +32°C° 0 mm 5 m/s 758 mmHg 72%
    17:00 +30°C° 0 mm 5 m/s 759 mmHg 82%
    18:00 +29°C° 0 mm 5 m/s 759 mmHg 92%
    19:00 +28°C° 0.3 mm 5 m/s 759 mmHg 94%
    20:00 +27°C° 0.3 mm 5 m/s 760 mmHg 96%
    21:00 +26°C° 0.3 mm 5 m/s 760 mmHg 98%
    22:00 +26°C° 0.6 mm 5 m/s 760 mmHg 98%
    23:00 +26°C° 0.6 mm 6 m/s 760 mmHg 98%

    26 Juillet, Vendredi

    Heure Température Précipitation Vent Pression Humidité
    00:00 +26°C° 0.6 mm 6 m/s 760 mmHg 98%
    01:00 +26°C° 0.2 mm 6 m/s 760 mmHg 98%
    02:00 +26°C° 0.2 mm 6 m/s 759 mmHg 99%
    03:00 +26°C° 0.2 mm 7 m/s 759 mmHg 99%
    04:00 +26°C° 0 mm 6 m/s 759 mmHg 99%
    05:00 +26°C° 0 mm 6 m/s 760 mmHg 99%
    06:00 +27°C° 0 mm 6 m/s 760 mmHg 99%
    07:00 +27°C° 0.1 mm 6 m/s 760 mmHg 95%
    08:00 +28°C° 0.1 mm 6 m/s 761 mmHg 91%
    09:00 +29°C° 0.1 mm 6 m/s 761 mmHg 87%
    10:00 +29°C° 0.7 mm 6 m/s 761 mmHg 87%
    11:00 +30°C° 0.7 mm 5 m/s 761 mmHg 87%
    12:00 +30°C° 0.7 mm 5 m/s 761 mmHg 87%
    13:00 +30°C° 0.6 mm 5 m/s 760 mmHg 84%
    14:00 +30°C° 0.6 mm 5 m/s 760 mmHg 81%
    15:00 +30°C° 0.6 mm 5 m/s 759 mmHg 78%
    16:00 +29°C° 0.2 mm 5 m/s 760 mmHg 82%
    17:00 +29°C° 0.2 mm 5 m/s 760 mmHg 86%
    18:00 +28°C° 0.2 mm 5 m/s 760 mmHg 90%
    19:00 +27°C° 0.1 mm 5 m/s 761 mmHg 92%
    20:00 +26°C° 0.1 mm 5 m/s 761 mmHg 95%
    21:00 +25°C° 0.1 mm 4 m/s 761 mmHg 97%
    22:00 +25°C° 0.2 mm 4 m/s 761 mmHg 97%
    23:00 +25°C° 0.2 mm 4 m/s 761 mmHg 98%

    27 Juillet, Samedi

    Heure Température Précipitation Vent Pression Humidité
    00:00 +25°C° 0.2 mm 4 m/s 761 mmHg 98%
    01:00 +25°C° 0.1 mm 4 m/s 760 mmHg 98%
    02:00 +25°C° 0.1 mm 4 m/s 760 mmHg 98%
    03:00 +25°C° 0.1 mm 3 m/s 760 mmHg 98%
    04:00 +25°C° 0.4 mm 3 m/s 760 mmHg 98%
    05:00 +25°C° 0.4 mm 3 m/s 760 mmHg 98%
    06:00 +25°C° 0.4 mm 2 m/s 761 mmHg 98%
    07:00 +27°C° 0.5 mm 2 m/s 761 mmHg 90%
    08:00 +29°C° 0.5 mm 3 m/s 761 mmHg 81%
    09:00 +30°C° 0.5 mm 3 m/s 762 mmHg 73%
    10:00 +31°C° 0.5 mm 3 m/s 761 mmHg 67%
    11:00 +33°C° 0.5 mm 3 m/s 761 mmHg 61%
    12:00 +34°C° 0.5 mm 4 m/s 761 mmHg 56%
    13:00 +34°C° 0.1 mm 4 m/s 761 mmHg 57%
    14:00 +34°C° 0.1 mm 4 m/s 760 mmHg 58%
    15:00 +34°C° 0.1 mm 5 m/s 760 mmHg 60%
    16:00 +32°C° 0.7 mm 5 m/s 760 mmHg 69%
    17:00 +30°C° 0.7 mm 5 m/s 760 mmHg 79%
    18:00 +28°C° 0.7 mm 6 m/s 760 mmHg 89%
    19:00 +27°C° 2.1 mm 6 m/s 761 mmHg 92%
    20:00 +26°C° 2.1 mm 6 m/s 761 mmHg 95%
    21:00 +26°C° 2.1 mm 6 m/s 761 mmHg 98%
    22:00 +26°C° 2.2 mm 7 m/s 761 mmHg 98%
    23:00 +26°C° 2.2 mm 7 m/s 761 mmHg 98%

    28 Juillet, Dimanche

    Heure Température Précipitation Vent Pression Humidité
    00:00 +26°C° 2.2 mm 7 m/s 761 mmHg 98%
    01:00 +26°C° 1.4 mm 7 m/s 761 mmHg 98%
    02:00 +26°C° 1.4 mm 7 m/s 760 mmHg 99%
    03:00 +26°C° 1.4 mm 7 m/s 760 mmHg 99%
    04:00 +26°C° 1 mm 7 m/s 760 mmHg 99%
    05:00 +26°C° 1 mm 7 m/s 760 mmHg 99%
    06:00 +26°C° 1 mm 7 m/s 761 mmHg 99%
    07:00 +27°C° 1.1 mm 7 m/s 761 mmHg 97%
    08:00 +28°C° 1.1 mm 6 m/s 762 mmHg 96%
    09:00 +28°C° 1.1 mm 6 m/s 762 mmHg 95%
    10:00 +29°C° 0.6 mm 6 m/s 762 mmHg 92%
    11:00 +29°C° 0.6 mm 6 m/s 762 mmHg 90%
    12:00 +30°C° 0.6 mm 6 m/s 761 mmHg 88%
    13:00 +30°C° 0.3 mm 6 m/s 761 mmHg 86%
    14:00 +30°C° 0.3 mm 6 m/s 760 mmHg 84%
    15:00 +30°C° 0.3 mm 6 m/s 760 mmHg 83%
    16:00 +29°C° 0.7 mm 6 m/s 760 mmHg 87%
    17:00 +28°C° 0.7 mm 6 m/s 760 mmHg 91%
    18:00 +28°C° 0.7 mm 6 m/s 760 mmHg 94%
    19:00 +27°C° 0.8 mm 6 m/s 760 mmHg 96%
    20:00 +26°C° 0.8 mm 6 m/s 761 mmHg 97%
    21:00 +26°C° 0.8 mm 6 m/s 761 mmHg 99%
    22:00 +26°C° 0.5 mm 6 m/s 761 mmHg 99%
    23:00 +26°C° 0.5 mm 6 m/s 761 mmHg 99%
    Voir plus